Regional Weather Roundup
Issued by NWS Albany, NY

Home | Current Version | Previous Version | Text Only | Print | Product List | Glossary On
Versions: 1 2 3 4 5 6 7 8 9 10 11 12 13 14 15 16 17 18 19 20 21 22 23 24 25 26 27 28
000
ASUS41 KALY 281210
RWRALY

NEW YORK STATE HOURLY WEATHER ROUNDUP
NATIONAL WEATHER SERVICE ALBANY NY
800 AM EDT SAT MAY 28 2016

NOTE: "FAIR" INDICATES FEW OR NO CLOUDS BELOW 12,000 FEET WITH NO
SIGNIFICANT WEATHER AND/OR NO OBSTRUCTIONS TO VISIBILITY.

NYZ032-033-038>043-046>054-057>066-NYZ062>081-082-084-281300-
EAST


CITY           SKY/WX    TMP DP  RH WIND       PRES   REMARKS
ALBANY         MOSUNNY   75  67  76 CALM      30.09S
GLENS FALLS    SUNNY     72  65  78 VRB3      30.09R
POUGHKEEPSIE   MOSUNNY   76  68  76 SW6       30.09R
NEWBURGH       MOSUNNY   73  70  88 W9        30.12S
MONTGOMERY     SUNNY     74  70  87 SW8       30.10S
WHITE PLAINS   SUNNY     74  64  71 W7        30.11F
ISLIP          MOSUNNY   70  59  68 SW12      30.13R
NEW YORK CITY  PTSUNNY   76  64  66 SW7       30.11S
CENTRAL PARK   SUNNY     73  59  61 MISG      30.14S
$$

NYZ005>009-017-018-044>046-055-056-281300-
CENTRAL


CITY           SKY/WX    TMP DP  RH WIND       PRES   REMARKS
FULTON         SUNNY     72  67  84 VRB3      30.09S
SYRACUSE       MOSUNNY   71  65  81 E3        30.09R
ROME           SUNNY     69  66  90 CALM      30.11S
ELMIRA         SUNNY     68  63  84 CALM      30.12F
BINGHAMTON     SUNNY     70  66  87 CALM      30.15R
MONTICELLO     SUNNY     70  66  88 CALM      30.17S
$$

NYZ026>034-041>043-087-281300-
NORTH


CITY           SKY/WX    TMP DP  RH WIND       PRES   REMARKS
WATERTOWN      PTSUNNY   70  66  87 SW3       30.08R FOG
FORT DRUM      NOT AVBL
MASSENA        SUNNY     72  65  78 SW5       30.07S
SARANAC LAKE   SUNNY     69  62  78 SW6       30.13R
PLATTSBURGH    MOSUNNY   72  66  81 NE5       30.07R
$$

NYZ001>004-010>016-019>021-085-281300-
WEST


CITY           SKY/WX    TMP DP  RH WIND       PRES   REMARKS
NIAGARA FALLS  PTSUNNY   72  63  73 S6        30.07S
BUFFALO        PTSUNNY   73  63  70 S6        30.08S
DUNKIRK        MOSUNNY   76  64  66 S9        30.08S
JAMESTOWN      SUNNY     66  61  82 S5        30.15S
WELLSVILLE     SUNNY     67  63  87 CALM      30.19R
ROCHESTER      MOSUNNY   73  64  73 SW8       30.09S
PENN YAN       SUNNY     71  64  78 SW10      30.12R
$$

             KEY
       WCI = WIND CHILL INDEX
       VSB = VISIBILITY
       HX  = HEAT INDEX
$$




USA.gov is the U.S. government's official web portal to all federal, state and local government web resources and services.